This demonstration page uses our WeatherBlox Daily Observations layout. Learn more.

Left ArrowRight Arrow

41.55636, -103.73856

Hourly Observations for May 14, 2020

Temp ( °F °C ) Dew Point ( °F °C ) Humidity (%) Winds ( mph kmh ) Pressure ( in mb ) Visibility ( mi km ) Precip ( " mm )
12:58 am 00:58 Mostly Clear 59 14.8 48 8.8 68 68 ESE 8 13 29.73 1007 10 16 N/A
1:58 am 01:58 Mostly Clear 54 12 48 9.1 83 83 SE 12 19 29.75 1008 10 16 N/A
2:58 am 02:58 Mostly Cloudy 52 11.2 47 8.2 82 82 SSW 6 9 29.76 1008 10 16 N/A
3:58 am 03:58 Mostly Clear 51 10.5 46 8 85 85 SW 6 9 29.80 1009 10 16 N/A
4:58 am 04:58 Partly Cloudy 51 10.3 46 7.9 85 85 SSW 8 13 29.83 1010 10 16 N/A
5:58 am 05:58 Mostly Cloudy 50 10.2 42 5.5 73 73 W 7 11 29.82 1010 10 16 N/A
6:58 am 06:58 Mostly Cloudy 50 10.1 38 3.5 64 64 W 12 19 29.81 1009 10 16 N/A
7:58 am 07:58 Mostly Cloudy with Rain 52 11.3 40 4.3 62 62 WNW 14 22 29.81 1010 10 16 0.02 0.51
8:58 am 08:58 Mostly Cloudy with Light Showers 52 11.1 40 4.2 63 63 WSW 9 15 29.81 1010 10 16 N/A
9:58 am 09:58 Mostly Cloudy 51 10.5 38 3.3 61 61 W 9 15 29.80 1009 10 16 0.01 0.25
10:58 am 10:58 Mostly Cloudy 51 10.6 37 3 60 60 NW 6 9 29.84 1011 10 16 N/A
11:58 am 11:58 Mostly Cloudy 47 8.4 39 3.9 74 74 W 9 15 29.88 1012 10 16 N/A
12:58 pm 12:58 Mostly Cloudy 49 9.4 40 4.6 72 72 W 9 15 29.90 1013 10 16 N/A
1:58 pm 13:58 Mostly Cloudy 53 11.7 40 4.6 62 62 W 9 15 29.90 1013 10 16 N/A
2:58 pm 14:58 Partly Cloudy 56 13.6 37 2.8 48 48 WNW 9 15 29.89 1012 10 16 N/A
3:58 pm 15:58 Partly Cloudy 60 15.6 34 1.1 38 38 NW 15 24 29.89 1012 10 16 N/A
4:58 pm 16:58 Mostly Sunny 61 16 34 1.2 37 37 NW 10 17 29.88 1012 10 16 N/A
5:58 pm 17:58 Mostly Sunny 64 17.7 33 0.4 31 31 NW 12 19 29.86 1011 10 16 N/A
6:58 pm 18:58 Sunny 66 19.1 32 -0.1 28 28 WNW 9 15 29.84 1011 10 16 N/A
7:58 pm 19:58 Sunny 68 20 32 0.1 26 26 NW 10 17 29.81 1010 10 16 N/A
8:58 pm 20:58 Mostly Cloudy 68 19.8 36 2.3 31 31 NNW 13 20 29.80 1009 10 16 N/A
9:58 pm 21:58 Mostly Cloudy 68 19.9 29 -1.7 23 23 N N/A 29.80 1009 10 16 N/A
10:58 pm 22:58 Mostly Cloudy 69 20.4 30 -1.1 24 24 NW 13 20 29.80 1009 10 16 N/A
11:58 pm 23:58 Partly Cloudy 68 20.1 34 1.3 29 29 ENE 7 11 29.82 1010 10 16 N/A

Powered by AerisWeather